{"data":{"norad_id":54768,"intl_designator":"2022-175L","name":"STARLINK-5444","alt_names":[],"object_type":"PAYLOAD","status":"ACTIVE","operator":null,"country":"US","launch_date":"2022-12-17","launch_site_code":"AFETR","launch_vehicle":null,"mission":null,"orbit_class":"UNKNOWN","rcs_meters":null,"size_class":null,"mass_kg":null,"dimensions":null,"purposes":["comms"],"wikipedia_slug":null,"has_3d_model":false,"image_url":null,"decayed_at":null,"tle_current":{"epoch":"2026-05-25T03:04:37.356096Z","epoch_age_seconds":54253,"freshness":"FRESH","line1":"1 54768U 22175L   26145.12821014  .00000287  00000+0  36121-4 0  9997","line2":"2 54768  53.2138  46.3596 0001663  73.4591 286.6584 15.08840035191668","mean_motion":15.08840035,"eccentricity":0.0001663,"inclination_deg":53.2138,"raan_deg":46.3596,"arg_perigee_deg":73.4591,"mean_anomaly_deg":286.6584,"bstar":3.6121e-5,"rev_number":19166,"period_min":95.437552463936,"perigee_km":538.59283849221,"apogee_km":540.893725474,"semimajor_km":6917.8802819831,"source":"CELESTRAK","updated_at":"2026-05-25T13:38:17.689859Z"}}}